RH
20 18 14 12 12 11 11 9 8 8 7 8 8 13 17 16 16 26 36 50 52 49 46 42 40 41 41 41 41 38 33 32 33 31 30 27 30 42 49 44 51 52 53 49
17 17 15 13 13 11 10 9 8 8 8 7 9 10 16 19 24 36 42 44 54 55 51 47 44 44 43 41 37 36 36 36 35 34 31 32 39 53 55 53 53 51 51 61
16 13 13 14 12 10 10 9 8 8 8 10 10 10 16 20 28 40 45 48 54 60 56 55 52 48 47 43 41 37 37 40 40 36 35 40 57 60 59 57 58 58 53 68
13 13 12 11 11 10 11 10 10 9 9 9 14 12 15 19 26 48 48 51 54 58 57 58 58 54 50 50 48 41 40 45 43 40 43 57 71 66 64 65 63 66 43 48
12 10 10 11 11 12 12 13 13 14 14 14 18 19 19 21 25 35 45 45 46 51 56 57 56 58 60 59 56 51 53 50 46 45 57 59 80 45 37 56 52 66 60 46
11 10 11 11 12 14 17 21 23 23 24 22 25 26 22 29 27 37 50 56 56 58 59 59 62 66 69 71 69 62 60 58 55 45 44 61 89 68 41 30 36 44 61 55
10 10 10 12 17 22 30 37 40 32 31 34 34 29 31 38 39 39 49 60 61 66 69 70 69 76 82 83 83 73 73 73 70 59 46 63 89 71 47 31 26 37 32 38
11 10 14 16 20 28 34 45 53 48 44 34 42 38 44 49 52 52 57 65 68 74 77 82 90 88 89 93 91 89 91 92 89 82 64 75 84 79 62 49 28 26 27 30
11 10 10 11 20 32 45 54 60 65 58 54 47 48 54 55 54 60 68 67 68 81 89 93 100 96 100 99 97 98 100 100 99 79 36 27 32 44 48 52 47 34 26 33
12 11 11 14 24 40 61 64 72 88 88 73 60 57 61 62 61 62 64 79 91 89 89 90 100 100 100 100 100 100 100 100 98 82 61 50 37 32 36 40 47 52 37 33
13 12 13 21 37 46 68 80 96 98 94 98 80 62 64 61 67 78 92 100 96 96 98 100 98 97 100 100 100 100 100 99 99 93 78 81 74 46 36 29 32 58 66 57
15 18 23 36 47 60 71 84 99 100 96 88 92 54 78 82 86 88 95 100 100 100 99 100 100 98 95 97 95 100 100 100 100 100 100 98 60 32 30 36 38 37 35 38
61 58 61 59 64 71 69 66 78 99 100 85 100 79 100 97 100 100 99 99 98 97 99 100 100 98 100 100 98 83 76 99 94 77 70 63 42 33 35 33 37 40 46 39
88 78 83 81 83 78 65 66 81 98 98 97 77 94 100 98 96 98 99 99 97 96 98 100 100 100 98 92 67 94 91 78 63 47 63 83 88 100 100 100 100 86 89 72
86 71 85 87 87 91 77 73 86 94 88 100 71 99 100 90 90 93 91 81 76 81 100 100 100 96 100 100 100 100 94 88 85 73 74 69 69 63 56 53 80 86 69 67
88 88 94 80 100 100 83 69 77 92 85 74 81 85 86 89 84 75 55 43 51 86 77 85 95 100 100 100 100 100 98 100 79 88 98 94 91 88 68 65 65 65 65 69
95 98 100 81 93 93 62 57 74 65 38 43 63 86 73 61 50 44 49 95 100 100 82 100 100 100 100 100 100 100 100 98 97 100 100 92 89 94 89 68 52 58 71 84
95 96 100 98 99 94 56 41 32 24 22 24 28 44 53 59 61 65 65 94 100 92 100 100 100 100 100 98 94 97 100 100 100 99 80 72 76 67 49 47 50 55 68 98
100 96 66 65 50 61 22 24 25 26 28 32 43 45 50 91 96 86 100 100 100 100 100 100 100 100 96 72 52 59 93 100 81 77 81 73 59 52 45 27 20 24 24 27
53 68 52 49 44 58 34 39 38 53 49 52 65 68 94 100 100 100 100 100 100 100 100 100 100 98 87 76 84 97 92 86 85 72 59 53 58 46 24 17 19 21 22 24
86 87 68 74 76 75 62 64 67 94 91 91 100 100 100 100 100 100 100 99 97 88 97 100 100 90 62 66 77 84 80 70 64 58 50 33 16 14 12 10 8 8 8 8
70 86 56 73 92 89 99 100 100 100 100 100 98 86 73 76 84 100 100 100 100 100 100 99 90 84 88 81 71 63 61 57 47 32 15 9 7 8 9 10 11 12 11 10
92 95 100 100 100 98 100 94 100 100 100 100 100 99 100 100 100 99 95 100 100 98 98 95 90 79 68 62 61 53 46 34 16 7 7 7 8 8 9 9 10 13 13 11
67 100 100 100 100 98 100 100 100 100 100 100 100 100 100 100 100 100 95 94 94 95 89 84 93 79 63 57 45 31 12 6 7 9 10 11 11 11 11 11 11 11 16 14
100 100 100 94 73 100 100 100 100 98 100 100 100 100 100 100 98 98 96 89 83 77 74 66 60 59 44 26 12 8 8 9 11 13 15 16 16 16 16 16 15 14 15 20
100 100 100 100 100 100 100 100 100 100 99 100 97 94 99 93 84 78 78 85 81 60 59 59 40 20 11 8 10 11 13 16 18 17 15 13 12 12 12 14 17 20 16 22
Wind_Speed
21 21 20 21 22 22 23 23 25 26 28 29 30 29 28 30 30 33 34 34 31 30 29 28 28 29 30 31 34 37 38 37 37 40 38 40 45 46 39 36 31 29 29 32
22 21 22 23 23 24 25 26 29 30 32 33 33 32 31 29 31 32 33 35 31 28 28 30 30 31 32 33 36 37 37 38 41 39 38 43 46 43 40 38 36 32 31 32
22 24 23 23 25 26 27 30 32 35 36 36 37 36 34 30 33 32 32 32 32 31 30 31 33 34 34 34 36 38 39 41 41 38 41 43 40 40 39 41 39 34 31 31
23 23 25 25 26 29 30 32 34 36 39 40 39 44 37 37 35 32 31 32 33 35 33 33 33 35 35 35 37 39 40 42 38 39 40 39 38 39 41 41 39 37 34 33
26 26 27 28 30 31 34 34 36 39 40 41 41 45 44 39 40 36 34 34 35 36 34 34 36 39 39 38 40 40 39 40 38 39 38 41 37 38 40 40 40 40 38 35
30 31 31 32 33 35 37 37 38 40 42 43 44 47 46 43 41 41 41 38 36 37 39 40 38 38 39 40 41 40 41 42 38 39 40 42 40 39 40 41 42 42 42 41
32 34 35 36 37 38 38 39 42 43 43 44 46 49 47 47 47 44 44 45 41 37 39 38 36 39 41 42 41 40 43 43 39 39 43 43 42 42 43 44 44 43 44 44
38 40 39 39 38 39 39 41 43 46 46 46 49 51 48 47 47 46 47 43 40 41 40 40 44 45 45 44 44 43 45 46 45 41 44 46 46 46 47 46 46 46 48 48
43 44 44 43 42 42 45 46 48 50 50 50 48 46 46 46 47 45 40 40 44 45 46 47 51 46 47 49 47 47 46 45 44 42 44 46 48 49 51 50 50 51 52 52
45 48 47 44 46 48 51 51 50 49 50 50 46 44 45 45 43 43 44 49 50 50 51 50 48 47 53 50 49 46 47 48 47 45 47 47 50 52 52 53 55 57 57 57
50 50 49 49 50 53 52 49 46 45 47 48 47 47 46 45 45 49 49 48 50 50 47 41 52 49 51 52 51 50 50 50 51 51 50 50 52 56 57 56 58 60 63 65
53 55 56 55 55 54 48 45 45 47 47 49 50 48 47 49 50 50 48 45 45 45 44 43 46 53 53 54 53 49 52 57 54 53 56 58 60 58 59 61 59 60 64 68
58 62 62 60 56 46 44 44 45 46 48 50 50 53 49 50 50 47 47 48 50 48 44 48 53 54 54 52 56 59 53 55 59 63 66 67 66 64 64 65 67 67 69 69
60 58 58 54 45 45 47 48 50 50 52 51 53 51 48 49 51 51 53 54 54 52 49 51 54 57 62 61 53 51 54 58 62 64 65 68 69 71 75 77 78 78 79 76
52 51 50 48 48 49 50 50 51 53 50 54 53 55 54 57 58 57 59 57 54 51 49 55 60 61 56 57 56 59 65 71 70 69 68 69 69 72 74 79 86 88 78 71
54 54 53 54 53 52 54 52 51 51 57 62 58 57 59 60 63 60 58 54 50 50 51 50 55 56 53 61 62 67 73 75 77 74 74 77 77 80 76 77 82 81 78 71
55 54 54 56 54 54 58 53 55 58 57 55 55 55 59 58 58 57 51 40 45 51 49 60 60 55 55 61 66 76 78 80 79 81 85 87 88 80 79 77 76 73 72 69
57 57 56 59 56 64 65 62 59 59 58 57 57 56 55 53 50 44 41 50 56 54 57 58 60 65 73 77 77 79 80 82 84 88 91 89 87 80 76 74 74 74 73 72
60 63 63 63 65 68 65 61 60 60 59 58 54 54 56 52 47 41 47 52 55 57 60 63 64 72 77 80 83 85 84 86 91 89 85 81 76 76 77 77 76 74 72 71
65 63 62 61 66 68 64 58 58 54 57 53 55 54 48 48 47 47 47 54 59 64 72 82 80 76 78 84 85 89 91 90 85 79 77 77 78 80 77 74 72 72 71 70
65 68 60 61 62 59 56 52 53 54 51 50 42 42 43 46 54 62 72 74 74 73 76 75 74 80 82 82 84 84 79 75 74 76 77 77 75 71 68 67 66 65 64 64
65 59 69 59 51 45 35 45 43 46 46 51 57 64 76 75 79 77 73 73 74 73 72 76 80 80 81 78 77 75 73 75 76 73 70 67 66 65 63 61 60 59 59 58
58 44 29 34 37 48 56 61 64 62 60 64 65 67 66 67 69 76 78 75 76 79 75 73 72 71 70 68 70 73 74 73 69 64 61 59 59 58 58 57 57 56 55 55
54 50 50 56 61 63 65 61 69 67 59 63 60 60 60 63 67 74 79 78 77 71 69 67 65 67 69 72 73 71 66 62 58 58 59 60 60 60 59 59 58 56 54 53
58 65 65 58 54 53 60 61 60 68 62 64 66 67 66 65 69 67 66 67 67 64 62 65 67 70 71 68 63 60 57 59 60 60 61 62 63 62 61 60 59 57 55 54
60 51 44 49 52 55 57 59 57 61 58 58 60 59 58 60 62 63 62 58 60 63 66 69 69 64 60 56 56 59 60 62 64 65 65 65 64 64 63 62 59 58 56 53
Wind_Direction
291 289 294 297 300 302 304 305 305 306 307 308 309 309 305 307 307 305 308 303 302 297 296 293 292 293 295 295 298 300 300 293 290 294 292 299 303 297 296 295 294 290 280 273
288 289 293 295 298 301 303 304 304 306 307 306 305 308 306 308 306 304 303 300 297 292 292 294 294 293 295 298 301 302 296 290 291 291 294 303 299 295 293 293 296 292 285 276
288 290 293 296 298 299 301 302 304 305 305 304 308 309 308 309 307 308 305 300 295 293 291 291 292 293 294 299 305 302 296 292 290 291 300 302 296 292 291 291 294 291 289 282
288 290 294 295 295 297 299 299 301 302 304 306 307 309 309 309 306 305 305 302 293 291 291 290 289 291 292 301 307 302 292 287 286 293 296 296 290 291 292 293 294 290 288 284
290 292 293 296 298 299 301 302 302 301 302 305 305 304 308 307 301 300 302 300 294 293 292 291 290 291 289 296 300 296 284 279 286 293 291 291 285 295 293 290 289 286 285 287
294 295 296 298 299 301 301 301 300 300 301 304 302 302 305 304 299 299 301 300 295 292 293 293 293 287 285 293 298 290 282 283 290 292 291 288 287 289 295 293 290 288 286 287
290 291 293 295 297 299 300 301 298 299 301 301 300 301 306 300 297 297 297 300 301 299 299 296 291 292 290 294 294 287 284 285 289 291 289 289 288 291 294 296 291 287 285 285
291 291 292 292 295 297 300 298 297 297 299 299 296 299 299 295 296 295 298 301 302 302 302 297 297 296 292 293 291 288 286 283 285 292 290 288 288 292 292 294 291 287 286 285
289 289 290 294 296 300 303 301 299 295 295 295 298 298 294 294 296 300 297 295 297 299 298 298 299 295 293 293 291 292 287 285 286 290 290 290 291 291 291 290 289 286 284 283
287 288 291 292 296 301 300 301 297 296 295 296 299 298 297 298 299 297 297 299 297 295 296 298 295 284 287 290 293 290 286 284 287 292 292 296 297 295 292 290 289 286 286 286
289 289 292 294 298 299 299 295 292 289 291 295 296 297 295 297 297 296 295 295 294 292 292 281 283 287 286 288 289 287 286 285 291 293 294 298 301 297 293 292 290 286 286 288
290 291 292 294 297 297 294 289 287 288 291 290 292 293 295 297 295 293 292 292 292 292 287 284 280 284 284 286 285 286 286 290 290 293 296 298 301 298 296 292 289 289 287 286
291 289 289 291 292 291 287 288 287 288 287 287 289 293 293 290 288 286 286 288 289 289 283 278 282 279 278 279 281 285 290 292 293 295 296 295 297 297 298 295 292 292 294 292
286 287 287 288 288 288 289 290 288 288 286 289 288 291 289 285 284 285 288 290 289 286 282 277 278 279 283 286 286 287 289 295 297 297 295 293 296 295 294 293 290 294 295 293
283 286 283 282 282 282 283 283 282 283 289 286 291 289 285 284 287 288 290 290 286 284 277 274 279 282 281 281 284 285 291 297 301 297 295 296 294 294 296 297 292 293 293 287
282 284 283 283 285 284 282 283 287 289 290 289 289 284 285 288 289 291 289 287 284 278 287 279 287 272 282 282 285 285 296 298 301 299 296 296 294 297 295 294 293 291 293 293
283 282 283 283 283 280 280 287 282 283 286 285 283 284 284 285 288 287 284 277 274 277 281 282 274 273 289 291 289 295 297 301 299 297 297 298 299 298 295 295 294 292 291 288
284 285 285 285 282 278 288 286 288 289 288 288 287 286 287 288 284 284 279 276 275 283 276 278 275 276 286 293 297 298 296 296 296 296 298 298 299 299 297 296 293 290 286 282
282 286 287 281 281 282 285 288 286 286 286 286 283 287 288 285 280 287 280 274 281 276 269 274 274 280 290 294 295 295 293 291 295 297 297 298 297 296 296 292 289 286 284 283
282 285 285 282 280 281 286 288 289 286 283 282 288 287 278 266 279 281 279 276 274 273 278 284 289 291 294 297 294 291 292 294 296 297 297 297 296 295 293 290 288 287 286 284
280 283 281 281 279 281 287 286 290 284 281 283 283 275 269 272 278 278 285 290 291 284 282 282 284 294 296 293 291 292 294 296 297 298 297 297 296 295 293 292 292 290 288 285
278 280 286 280 280 287 279 281 269 278 279 273 276 277 280 281 281 286 289 286 284 279 282 289 295 294 292 294 295 297 298 298 299 299 298 297 297 297 296 296 294 292 290 288
276 269 263 265 260 264 271 269 270 280 275 276 282 277 271 274 280 287 287 284 289 297 298 295 295 295 296 298 298 298 299 299 299 299 299 299 299 299 299 298 297 295 292 290
260 239 257 271 274 275 273 274 270 273 279 279 273 278 280 285 288 290 296 298 298 298 299 300 297 298 299 299 300 300 300 299 299 299 300 300 299 299 298 298 298 296 293 290
251 256 272 284 279 265 259 266 276 279 276 278 287 293 296 298 298 297 295 294 295 298 299 297 297 299 300 301 299 299 299 299 300 300 300 300 299 299 298 297 295 294 292 289
268 277 263 264 264 265 271 272 269 284 295 296 297 297 296 294 294 296 298 300 300 300 298 298 299 299 298 298 299 299 300 301 301 302 301 300 299 298 297 296 294 292 290 287